{"data":{"norad_id":62765,"epoch":"2026-05-24T19:13:16.889952Z","epoch_age_seconds":95683,"freshness":"FRESH","line1":"1 62765U 25015H   26144.80088993  .00016241  00000+0  49083-3 0  9991","line2":"2 62765  53.1594 328.2494 0000544  33.7510 326.3528 15.34394815 76015","mean_motion":15.34394815,"eccentricity":5.44e-5,"inclination_deg":53.1594,"raan_deg":328.2494,"arg_perigee_deg":33.751,"mean_anomaly_deg":326.3528,"bstar":0.00049083,"rev_number":7601,"period_min":93.84807521003,"perigee_km":462.34650861577,"apogee_km":463.09079371061,"semimajor_km":6840.8556511632,"source":"CELESTRAK","updated_at":"2026-05-25T13:38:19.744477Z"}}